Rechercher aéroport 
image banner adimage banner adimage banner ad
image banner ad

95CA - Bonel

Situé à Whitley Garden, United States

ICAO - 95CA, IATA -

Données fournies par Airmate  

Information générale

Coordonnées: N35°40'9" W120°32'55"
Élévation : 1030 feet MSL.
Variation magnétique : 15° East
Voir autres Aéroports à California

Données opérationnelles

Special qualification required
Heure actuelle UTC:
Heure actuelle locale:
Météo à : KPRB - Paso Robles Muni ( 7 km )
METAR: KPRB 231453Z AUTO 00000KT 10SM CLR 13/09 A2997 RMK AO2 SLP144 T01330089 53004
TAF: KPRB 231144Z 2312/2412 VRB03KT P6SM SKC FM232100 22010KT P6SM SKC FM240500 VRB03KT P6SM SKC
Voir NOTAMs / SUP AIP / TFR affectant cet aéroport [VIEW]
Fréquences de communication: [VIEW]

Pistes:

Identifiant RWYQFULongueur (ft)Largeur (ft)SurfaceLDA (ft)
17200050GRASS
35200050GRASS

Coordonnées de l'aéroport

Adresse: Whitley Garden United States

Vue satellite de 95CA